Terug naar catalogus

QIANFAN-94

ActiefCommunicatiePO
NORAD 66036·PAYLOAD·🇨🇳 China

Gelanceerd Oct 17, 2025 vanaf Taiyuan Satellite Launch Center

Loading…

Volgende Passages (komende 24 uur)

TLE

VersSource: Space-Track

Epoch: Sep 14, 2026, 19:50 UTC

1 66036U 25233D   26257.82681438  .00000077  00000-0  10107-3 0  9994
2 66036  89.0054  34.0581 0001805  98.0949 262.0407 13.51027257 45332

Volg QIANFAN-94 in realtime met AllMySat

Download on the App Store